This is the latest recevied weather packets stored in our database for station/object OK1FET-4. If no packets are shown the sender has not sent any weather packets the latest 10 day(s).
| Time | Temp. | Humidity | Pressure | Rain* | Wind** | Luminosity | Snow |
|---|---|---|---|---|---|---|---|
| 1788247510 | 18.33° C | 66% | 1020.7 hPa | - | - | - | - |
| 1788247209 | 18.33° C | 67% | 1020.7 hPa | - | - | - | - |
| 1788246908 | 18.33° C | 68% | 1020.8 hPa | - | - | - | - |
| 1788246608 | 17.78° C | 71% | 1020.9 hPa | - | - | - | - |
| 1788246307 | 17.78° C | 72% | 1020.9 hPa | - | - | - | - |
| 1788246006 | 17.22° C | 73% | 1020.9 hPa | - | - | - | - |
| 1788245706 | 17.78° C | 73% | 1020.8 hPa | - | - | - | - |
| 1788245405 | 17.22° C | 75% | 1020.9 hPa | - | - | - | - |
| 1788245104 | 17.22° C | 76% | 1020.9 hPa | - | - | - | - |
| 1788244804 | 17.22° C | 76% | 1020.8 hPa | - | - | - | - |
| 1788244503 | 16.67° C | 78% | 1020.8 hPa | - | - | - | - |
| 1788244223 | 16.67° C | 80% | 1020.9 hPa | - | - | - | - |
| 1788243902 | 16.11° C | 81% | 1020.7 hPa | - | - | - | - |
| 1788243601 | 16.11° C | 82% | 1020.7 hPa | - | - | - | - |
| 1788243301 | 16.11° C | 83% | 1020.7 hPa | - | - | - | - |
| 1788243000 | 16.11° C | 83% | 1020.8 hPa | - | - | - | - |
| 1788242700 | 15.56° C | 84% | 1020.8 hPa | - | - | - | - |
| 1788242399 | 15.56° C | 84% | 1020.7 hPa | - | - | - | - |
| 1788242099 | 15° C | 85% | 1020.7 hPa | - | - | - | - |
| 1788241798 | 15° C | 86% | 1020.7 hPa | - | - | - | - |
| 1788241497 | 15° C | 86% | 1020.6 hPa | - | - | - | - |
| 1788241197 | 15° C | 86% | 1020.6 hPa | - | - | - | - |
| 1788240897 | 15° C | 86% | 1020.5 hPa | - | - | - | - |
| 1788240596 | 15° C | 86% | 1020.4 hPa | - | - | - | - |
| 1788240296 | 15° C | 86% | 1020.4 hPa | - | - | - | - |
* Rain since midnight (hover to see other rain measurements)
** Current wind speed in m/s (hover to see current wind gust speed)